CW0655 Weather Reports


time (UTC)temp
C
wind
direction
speed
KPH
gust
KPH
rain 1hr
cm
rain 24hr
cm
rain mn
cm
humidity
%
barometer
mb
20260504224054 20 229 0.0 6.4 0.00 0.00 0.00 38 1006.1
20260504223054 21 198 0.0 8.0 0.00 0.00 0.00 38 1006.1
20260504222054 21 200 0.0 9.7 0.00 0.00 0.00 37 1006.1
20260504220054 21 207 0.0 6.4 0.00 0.00 0.00 36 1006.2
20260504215054 21 202 0.0 8.0 0.00 0.00 0.00 35 1006.2
20260504213054 21 206 1.6 6.4 0.00 0.00 0.00 35 1006.2
20260504212054 21 207 3.2 12.9 0.00 0.00 0.00 35 1006.3
20260504211054 22 224 1.6 14.5 0.00 0.00 0.00 34 1006.1
20260504210054 22 200 1.6 11.3 0.00 0.00 0.00 33 1006.2
20260504204054 22 213 1.6 8.0 0.00 0.00 0.00 34 1006.1
20260504203054 22 230 3.2 11.3 0.00 0.00 0.00 33 1006.1
20260504202054 22 229 4.8 11.3 0.00 0.00 0.00 33 1006.2
20260504201054 22 183 4.8 14.5 0.00 0.00 0.00 32 1006.2
20260504200053 23 202 3.2 9.7 0.00 0.00 0.00 32 1006.1
20260504195053 23 204 1.6 16.1 0.00 0.00 0.00 33 1006.2
20260504193054 21 192 0.0 9.7 0.00 0.00 0.00 34 1006.1
20260504192053 21 215 4.8 8.0 0.00 0.00 0.00 34 1006.1
20260504191053 21 239 4.8 16.1 0.00 0.00 0.00 33 1006.2
20260504185053 22 186 0.0 9.7 0.00 0.00 0.00 32 1006.5
20260504183053 22 194 14.5 14.5 0.00 0.00 0.00 32 1006.6
20260504182053 22 217 3.2 14.5 0.00 0.00 0.00 32 1006.8
20260504181053 22 212 4.8 14.5 0.00 0.00 0.00 32 1006.9
20260504180054 22 202 6.4 16.1 0.00 0.00 0.00 32 1006.8
20260504175053 22 128 3.2 14.5 0.00 0.00 0.00 32 1006.7
20260504174053 22 206 1.6 11.3 0.00 0.00 0.00 32 1007.0
20260504173053 22 220 3.2 11.3 0.00 0.00 0.00 32 1007.1
20260504171053 21 180 6.4 12.9 0.00 0.00 0.00 32 1007.3
20260504151053 18 239 3.2 8.0 0.00 0.00 0.00 39 1008.5
20260504141053 17 200 1.6 11.3 0.00 0.00 0.00 44 1008.9
20260504081052 5 269 0.0 0.0 0.00 0.00 0.00 70 1010.1
20260504045051 3 269 0.0 0.0 0.00 0.00 0.00 72 1010.0
20260504044051 3 269 0.0 0.0 0.00 0.00 0.00 72 1010.0
20260504043051 3 269 0.0 0.0 0.00 0.00 0.00 72 1010.0
20260504042051 3 269 0.0 0.0 0.00 0.00 0.00 73 1010.0
20260504041051 3 269 0.0 0.0 0.00 0.00 0.00 73 1009.9
20260504040051 3 269 0.0 0.0 0.00 0.00 0.00 72 1009.9
20260504035051 3 269 0.0 0.0 0.00 0.00 0.00 72 1009.8
20260504034051 3 268 0.0 0.0 0.00 0.00 0.00 72 1009.7
20260504033051 3 269 0.0 0.0 0.00 0.00 0.00 72 1009.7
20260504032051 3 269 0.0 0.0 0.00 0.00 0.00 72 1009.6
20260504031051 3 269 0.0 0.0 0.00 0.00 0.00 71 1009.6
20260504030051 3 269 0.0 0.0 0.00 0.00 0.00 71 1009.7
20260504025051 3 269 0.0 0.0 0.00 0.00 0.00 71 1009.6
20260504024051 3 269 0.0 0.0 0.00 0.00 0.00 70 1009.5
20260504023051 4 269 0.0 0.0 0.00 0.00 0.00 69 1009.5
20260504022051 4 268 0.0 0.0 0.00 0.00 0.00 69 1009.5
20260504021051 5 269 0.0 0.0 0.00 0.00 0.00 67 1009.4
20260504020051 5 269 0.0 0.0 0.00 0.00 0.00 65 1009.3
20260504015051 5 269 0.0 0.0 0.00 0.00 0.00 64 1009.4
20260504014051 5 269 0.0 0.0 0.00 0.00 0.00 64 1009.2
20260504013051 5 269 0.0 0.0 0.00 0.00 0.00 64 1009.2
20260504012051 5 269 0.0 0.0 0.00 0.00 0.00 62 1009.1
20260504010051 6 269 0.0 0.0 0.00 0.00 0.00 61 1009.0
20260504005050 6 269 0.0 0.0 0.00 0.00 0.00 59 1008.8
20260504004051 6 269 0.0 0.0 0.00 0.00 0.00 58 1008.7
20260504003050 7 269 0.0 0.0 0.00 0.03 0.00 57 1008.6
20260504002051 7 269 0.0 0.0 0.00 0.03 0.00 56 1008.4
20260504001050 7 269 0.0 0.0 0.00 0.03 0.00 55 1008.3
20260504000050 8 269 0.0 0.0 0.00 0.03 0.00 55 1008.3
20260503235050 8 269 0.0 0.0 0.00 0.03 0.00 53 1008.1
20260503234050 9 269 0.0 0.0 0.00 0.03 0.00 53 1008.0
20260503233050 9 269 0.0 4.8 0.00 0.03 0.00 50 1007.9
20260503232050 10 62 0.0 9.7 0.00 0.03 0.00 49 1007.7
20260503231051 10 286 0.0 6.4 0.00 0.03 0.00 48 1007.6
20260503230050 10 315 0.0 4.8 0.00 0.03 0.00 48 1007.6
20260503225050 10 312 0.0 9.7 0.00 0.03 0.00 47 1007.5